contact:dominique.lefevre@mio.osupytheas.fr, maurice.libes@osupytheas.fr, didier.mallarino@osupytheas.fr
Project:EMSO http://www.emso-fr.org/EMSO-France
Depth: 2436.0 m
Title:EMSO Ligure Ouest : Data MII capteur MICROCAT
DateTime_Computer,Latitude,Longitude,Temperature,Conductivity,Pressure,DateTime_Instrument
DateTime_Computer,Latitude,Longitude,degC,S m-1,dbar,DateTime_Instrument
2020-02-07T00:01:44Z,42.805,6.029,13.2962,4.59961,2469.9,2020-2-07T02:02:18Z
2020-02-07T00:04:47Z,42.805,6.029,13.2962,4.59961,2469.9,2020-2-07T02:05:21Z
2020-02-07T00:07:50Z,42.805,6.029,13.2965,4.59961,2469.923,2020-2-07T02:08:24Z
2020-02-07T00:10:53Z,42.805,6.029,13.2959,4.59962,2469.909,2020-2-07T02:11:28Z
2020-02-07T00:13:57Z,42.805,6.029,13.2964,4.59965,2469.9,2020-2-07T02:14:31Z
2020-02-07T00:17:00Z,42.805,6.029,13.2964,4.59961,2469.937,2020-2-07T02:17:34Z
2020-02-07T00:20:03Z,42.805,6.029,13.2964,4.59963,2469.909,2020-2-07T02:20:37Z
2020-02-07T00:23:06Z,42.805,6.029,13.2958,4.59962,2469.923,2020-2-07T02:23:41Z
2020-02-07T00:26:09Z,42.805,6.029,13.2964,4.59963,2469.914,2020-2-07T02:26:44Z
2020-02-07T00:29:13Z,42.805,6.029,13.2963,4.59964,2469.923,2020-2-07T02:29:47Z
2020-02-07T00:32:16Z,42.805,6.029,13.2964,4.59961,2469.914,2020-2-07T02:32:50Z
2020-02-07T00:35:19Z,42.805,6.029,13.2961,4.59961,2469.9,2020-2-07T02:35:53Z
2020-02-07T00:38:22Z,42.805,6.029,13.2966,4.59962,2469.923,2020-2-07T02:38:56Z
2020-02-07T00:41:25Z,42.805,6.029,13.2960,4.59961,2469.96,2020-2-07T02:42:00Z
2020-02-07T00:44:29Z,42.805,6.029,13.2963,4.59963,2469.937,2020-2-07T02:45:03Z
2020-02-07T00:47:32Z,42.805,6.029,13.2959,4.59963,2469.923,2020-2-07T02:48:06Z
2020-02-07T00:50:35Z,42.805,6.029,13.2961,4.59962,2469.937,2020-2-07T02:51:09Z
2020-02-07T00:53:38Z,42.805,6.029,13.2959,4.59961,2469.937,2020-2-07T02:54:12Z
2020-02-07T00:56:41Z,42.805,6.029,13.2963,4.59966,2469.923,2020-2-07T02:57:16Z
2020-02-07T00:59:45Z,42.805,6.029,13.2961,4.59962,2469.96,2020-2-07T03:00:19Z
2020-02-07T01:02:48Z,42.805,6.029,13.2964,4.59962,2469.947,2020-2-07T03:03:22Z
2020-02-07T01:05:51Z,42.805,6.029,13.2964,4.59963,2469.947,2020-2-07T03:06:25Z
2020-02-07T01:08:54Z,42.805,6.029,13.2961,4.59963,2469.96,2020-2-07T03:09:28Z
2020-02-07T01:11:57Z,42.805,6.029,13.2963,4.59964,2469.947,2020-2-07T03:12:32Z
2020-02-07T01:15:01Z,42.805,6.029,13.2961,4.59964,2469.947,2020-2-07T03:15:35Z
2020-02-07T01:18:04Z,42.805,6.029,13.2961,4.59962,2469.96,2020-2-07T03:18:38Z
2020-02-07T01:21:07Z,42.805,6.029,13.2967,4.59963,2469.947,2020-2-07T03:21:41Z
2020-02-07T01:24:10Z,42.805,6.029,13.2964,4.59962,2469.933,2020-2-07T03:24:44Z
2020-02-07T01:27:13Z,42.805,6.029,13.2965,4.59963,2469.97,2020-2-07T03:27:48Z
2020-02-07T01:30:17Z,42.805,6.029,13.2967,4.59963,2469.947,2020-2-07T03:30:51Z
2020-02-07T01:33:20Z,42.805,6.029,13.2960,4.59965,2469.947,2020-2-07T03:33:54Z
2020-02-07T01:36:23Z,42.805,6.029,13.2961,4.59962,2469.984,2020-2-07T03:36:57Z
2020-02-07T01:39:26Z,42.805,6.029,13.2963,4.59963,2469.984,2020-2-07T03:40:00Z
2020-02-07T01:42:29Z,42.805,6.029,13.2962,4.59964,2469.96,2020-2-07T03:43:04Z
2020-02-07T01:45:32Z,42.805,6.029,13.2964,4.59964,2469.97,2020-2-07T03:46:07Z
2020-02-07T01:48:36Z,42.805,6.029,13.2961,4.59962,2469.984,2020-2-07T03:49:10Z
2020-02-07T01:51:39Z,42.805,6.029,13.2961,4.59963,2469.97,2020-2-07T03:52:13Z
2020-02-07T01:54:42Z,42.805,6.029,13.2964,4.59964,2469.97,2020-2-07T03:55:16Z
2020-02-07T01:57:46Z,42.805,6.029,13.2964,4.59962,2469.937,2020-2-07T03:58:20Z
2020-02-07T02:00:49Z,42.805,6.029,13.2964,4.59963,2469.984,2020-2-07T04:01:23Z
2020-02-07T02:03:52Z,42.805,6.029,13.2964,4.59961,2469.97,2020-2-07T04:04:26Z
2020-02-07T02:06:55Z,42.805,6.029,13.2964,4.59964,2469.97,2020-2-07T04:07:30Z
2020-02-07T02:09:59Z,42.805,6.029,13.2966,4.59963,2469.97,2020-2-07T04:10:33Z
2020-02-07T02:13:02Z,42.805,6.029,13.2961,4.59961,2469.97,2020-2-07T04:13:36Z
2020-02-07T02:16:05Z,42.805,6.029,13.2964,4.59962,2470.007,2020-2-07T04:16:39Z
2020-02-07T02:19:08Z,42.805,6.029,13.2965,4.59963,2469.993,2020-2-07T04:19:42Z
2020-02-07T02:22:11Z,42.805,6.029,13.2961,4.59963,2470.04,2020-2-07T04:22:46Z
2020-02-07T02:25:15Z,42.805,6.029,13.2961,4.59962,2469.97,2020-2-07T04:25:49Z
2020-02-07T02:28:18Z,42.805,6.029,13.2963,4.59965,2470.007,2020-2-07T04:28:52Z
2020-02-07T02:31:21Z,42.805,6.029,13.2960,4.59962,2469.993,2020-2-07T04:31:55Z
2020-02-07T02:34:24Z,42.805,6.029,13.2963,4.59963,2469.984,2020-2-07T04:34:58Z
2020-02-07T02:37:27Z,42.805,6.029,13.2962,4.59962,2469.984,2020-2-07T04:38:01Z
2020-02-07T02:40:30Z,42.805,6.029,13.2964,4.59963,2470.017,2020-2-07T04:41:05Z
2020-02-07T02:43:34Z,42.805,6.029,13.2963,4.59964,2469.993,2020-2-07T04:44:08Z
2020-02-07T02:46:37Z,42.805,6.029,13.2964,4.59961,2469.993,2020-2-07T04:47:11Z
2020-02-07T02:49:40Z,42.805,6.029,13.2964,4.59962,2470.007,2020-2-07T04:50:14Z
2020-02-07T02:52:43Z,42.805,6.029,13.2965,4.59963,2470.017,2020-2-07T04:53:17Z
2020-02-07T02:55:46Z,42.805,6.029,13.2964,4.59963,2470.017,2020-2-07T04:56:21Z
2020-02-07T02:58:50Z,42.805,6.029,13.2961,4.59962,2470.017,2020-2-07T04:59:24Z
2020-02-07T03:01:53Z,42.805,6.029,13.2965,4.59962,2470.007,2020-2-07T05:02:27Z
2020-02-07T03:04:56Z,42.805,6.029,13.2960,4.59964,2470.053,2020-2-07T05:05:30Z
2020-02-07T03:07:59Z,42.805,6.029,13.2959,4.59962,2470.03,2020-2-07T05:08:33Z
2020-02-07T03:11:02Z,42.805,6.029,13.2961,4.59964,2470.03,2020-2-07T05:11:37Z
2020-02-07T03:14:06Z,42.805,6.029,13.2963,4.59964,2470.053,2020-2-07T05:14:40Z
2020-02-07T03:17:09Z,42.805,6.029,13.2967,4.59964,2470.063,2020-2-07T05:17:43Z
2020-02-07T03:20:12Z,42.805,6.029,13.2964,4.59966,2470.063,2020-2-07T05:20:46Z
2020-02-07T03:23:15Z,42.805,6.029,13.2960,4.59963,2470.04,2020-2-07T05:23:49Z
2020-02-07T03:26:18Z,42.805,6.029,13.2965,4.59966,2470.04,2020-2-07T05:26:53Z
2020-02-07T03:29:22Z,42.805,6.029,13.2961,4.59961,2470.063,2020-2-07T05:29:56Z
2020-02-07T03:32:25Z,42.805,6.029,13.2964,4.59964,2470.04,2020-2-07T05:32:59Z
2020-02-07T03:35:28Z,42.805,6.029,13.2961,4.59964,2470.04,2020-2-07T05:36:02Z
2020-02-07T03:38:31Z,42.805,6.029,13.2968,4.59961,2470.053,2020-2-07T05:39:06Z
2020-02-07T03:41:34Z,42.805,6.029,13.2960,4.59964,2470.04,2020-2-07T05:42:09Z
2020-02-07T03:44:38Z,42.805,6.029,13.2960,4.59964,2470.063,2020-2-07T05:45:12Z
2020-02-07T03:47:41Z,42.805,6.029,13.2965,4.59962,2470.063,2020-2-07T05:48:15Z
2020-02-07T03:50:44Z,42.805,6.029,13.2962,4.59963,2470.11,2020-2-07T05:51:18Z
2020-02-07T03:53:47Z,42.805,6.029,13.2961,4.59962,2470.063,2020-2-07T05:54:21Z
2020-02-07T03:56:50Z,42.805,6.029,13.2963,4.59964,2470.063,2020-2-07T05:57:25Z
2020-02-07T03:59:54Z,42.805,6.029,13.2961,4.59966,2470.1,2020-2-07T06:00:28Z
2020-02-07T04:02:57Z,42.805,6.029,13.2963,4.59963,2470.087,2020-2-07T06:03:31Z
2020-02-07T04:06:00Z,42.805,6.029,13.2965,4.59963,2470.091,2020-2-07T06:06:35Z
2020-02-07T04:09:03Z,42.805,6.029,13.2963,4.59963,2470.11,2020-2-07T06:09:38Z
2020-02-07T04:12:07Z,42.805,6.029,13.2960,4.59963,2470.077,2020-2-07T06:12:41Z
2020-02-07T04:15:10Z,42.805,6.029,13.2965,4.59963,2470.124,2020-2-07T06:15:44Z
2020-02-07T04:18:13Z,42.805,6.029,13.2960,4.59962,2470.1,2020-2-07T06:18:47Z
2020-02-07T04:21:16Z,42.805,6.029,13.2962,4.59966,2470.11,2020-2-07T06:21:50Z
2020-02-07T04:24:19Z,42.805,6.029,13.2962,4.59962,2470.1,2020-2-07T06:24:54Z
2020-02-07T04:27:23Z,42.805,6.029,13.2964,4.59962,2470.087,2020-2-07T06:27:57Z
2020-02-07T04:30:26Z,42.805,6.029,13.2966,4.59962,2470.124,2020-2-07T06:31:00Z
2020-02-07T04:33:29Z,42.805,6.029,13.2963,4.59967,2470.133,2020-2-07T06:34:03Z
2020-02-07T04:36:32Z,42.805,6.029,13.2966,4.59962,2470.087,2020-2-07T06:37:06Z
2020-02-07T04:39:35Z,42.805,6.029,13.2960,4.59964,2470.087,2020-2-07T06:40:10Z
2020-02-07T04:42:39Z,42.805,6.029,13.2962,4.59962,2470.11,2020-2-07T06:43:13Z
2020-02-07T04:45:42Z,42.805,6.029,13.2962,4.59963,2470.133,2020-2-07T06:46:16Z
2020-02-07T04:48:45Z,42.805,6.029,13.2961,4.59963,2470.124,2020-2-07T06:49:19Z
2020-02-07T04:51:48Z,42.805,6.029,13.2965,4.59963,2470.087,2020-2-07T06:52:22Z
2020-02-07T04:54:51Z,42.805,6.029,13.2964,4.59963,2470.133,2020-2-07T06:55:26Z
2020-02-07T04:57:55Z,42.805,6.029,13.2960,4.59962,2470.147,2020-2-07T06:58:29Z
2020-02-07T05:00:58Z,42.805,6.029,13.2958,4.59964,2470.133,2020-2-07T07:01:32Z
2020-02-07T05:04:01Z,42.805,6.029,13.2961,4.59961,2470.133,2020-2-07T07:04:35Z
2020-02-07T05:07:04Z,42.805,6.029,13.2966,4.59961,2470.087,2020-2-07T07:07:38Z
2020-02-07T05:10:07Z,42.805,6.029,13.2960,4.59961,2470.124,2020-2-07T07:10:41Z
2020-02-07T05:13:10Z,42.805,6.029,13.2964,4.59961,2470.133,2020-2-07T07:13:45Z
2020-02-07T05:16:14Z,42.805,6.029,13.2962,4.59963,2470.133,2020-2-07T07:16:48Z
2020-02-07T05:19:17Z,42.805,6.029,13.2962,4.59963,2470.11,2020-2-07T07:19:51Z
2020-02-07T05:22:20Z,42.805,6.029,13.2964,4.59961,2470.133,2020-2-07T07:22:54Z
2020-02-07T05:25:23Z,42.805,6.029,13.2963,4.59964,2470.156,2020-2-07T07:25:57Z
2020-02-07T05:28:27Z,42.805,6.029,13.2961,4.59964,2470.133,2020-2-07T07:29:01Z
2020-02-07T05:31:30Z,42.805,6.029,13.2964,4.59964,2470.156,2020-2-07T07:32:04Z
2020-02-07T05:34:33Z,42.805,6.029,13.2964,4.59964,2470.133,2020-2-07T07:35:07Z
2020-02-07T05:37:36Z,42.805,6.029,13.2961,4.59961,2470.133,2020-2-07T07:38:10Z
2020-02-07T05:40:39Z,42.805,6.029,13.2965,4.59963,2470.124,2020-2-07T07:41:14Z
2020-02-07T05:43:43Z,42.805,6.029,13.2956,4.59962,2470.147,2020-2-07T07:44:17Z
2020-02-07T05:46:46Z,42.805,6.029,13.2964,4.59962,2470.171,2020-2-07T07:47:20Z
2020-02-07T05:49:49Z,42.805,6.029,13.2959,4.59961,2470.133,2020-2-07T07:50:23Z
2020-02-07T05:52:52Z,42.805,6.029,13.2962,4.59963,2470.133,2020-2-07T07:53:26Z
2020-02-07T05:55:55Z,42.805,6.029,13.2961,4.59962,2470.156,2020-2-07T07:56:30Z
2020-02-07T05:58:58Z,42.805,6.029,13.2964,4.59962,2470.124,2020-2-07T07:59:33Z
2020-02-07T06:02:02Z,42.805,6.029,13.2961,4.59963,2470.133,2020-2-07T08:02:36Z
2020-02-07T06:05:05Z,42.805,6.029,13.2963,4.59965,2470.203,2020-2-07T08:05:39Z
2020-02-07T06:08:08Z,42.805,6.029,13.2961,4.59962,2470.147,2020-2-07T08:08:42Z
2020-02-07T06:11:11Z,42.805,6.029,13.2958,4.59963,2470.133,2020-2-07T08:11:45Z
2020-02-07T06:14:14Z,42.805,6.029,13.2961,4.59966,2470.133,2020-2-07T08:14:49Z
2020-02-07T06:17:17Z,42.805,6.029,13.2958,4.59963,2470.156,2020-2-07T08:17:52Z
2020-02-07T06:20:21Z,42.805,6.029,13.2962,4.59964,2470.133,2020-2-07T08:20:55Z
2020-02-07T06:23:24Z,42.805,6.029,13.2964,4.59963,2470.171,2020-2-07T08:23:58Z
2020-02-07T06:26:27Z,42.805,6.029,13.2964,4.59962,2470.156,2020-2-07T08:27:01Z
2020-02-07T06:29:30Z,42.805,6.029,13.2958,4.59964,2470.156,2020-2-07T08:30:04Z
2020-02-07T06:32:33Z,42.805,6.029,13.2964,4.59964,2470.156,2020-2-07T08:33:08Z
2020-02-07T06:35:37Z,42.805,6.029,13.2964,4.59964,2470.156,2020-2-07T08:36:11Z
2020-02-07T06:38:40Z,42.805,6.029,13.2961,4.59962,2470.133,2020-2-07T08:39:14Z
2020-02-07T06:41:43Z,42.805,6.029,13.2961,4.59962,2470.171,2020-2-07T08:42:17Z
2020-02-07T06:44:46Z,42.805,6.029,13.2959,4.59963,2470.171,2020-2-07T08:45:20Z
2020-02-07T06:47:49Z,42.805,6.029,13.2963,4.59964,2470.124,2020-2-07T08:48:24Z
2020-02-07T06:50:53Z,42.805,6.029,13.2962,4.59963,2470.133,2020-2-07T08:51:27Z
2020-02-07T06:53:56Z,42.805,6.029,13.2958,4.59964,2470.147,2020-2-07T08:54:30Z
2020-02-07T06:56:59Z,42.805,6.029,13.2957,4.59962,2470.147,2020-2-07T08:57:33Z
2020-02-07T07:00:02Z,42.805,6.029,13.2958,4.59962,2470.133,2020-2-07T09:00:36Z
2020-02-07T07:03:05Z,42.805,6.029,13.2961,4.59963,2470.18,2020-2-07T09:03:40Z
2020-02-07T07:06:09Z,42.805,6.029,13.2963,4.59964,2470.171,2020-2-07T09:06:43Z
2020-02-07T07:09:12Z,42.805,6.029,13.2958,4.59962,2470.156,2020-2-07T09:09:46Z
2020-02-07T07:12:15Z,42.805,6.029,13.2964,4.59964,2470.156,2020-2-07T09:12:49Z
2020-02-07T07:15:18Z,42.805,6.029,13.2962,4.59964,2470.171,2020-2-07T09:15:52Z
2020-02-07T07:18:21Z,42.805,6.029,13.2958,4.59964,2470.156,2020-2-07T09:18:56Z
2020-02-07T07:21:24Z,42.805,6.029,13.2962,4.59963,2470.147,2020-2-07T09:21:59Z
2020-02-07T07:24:28Z,42.805,6.029,13.2964,4.59964,2470.11,2020-2-07T09:25:02Z
2020-02-07T07:27:31Z,42.805,6.029,13.2964,4.59963,2470.156,2020-2-07T09:28:05Z
2020-02-07T07:30:34Z,42.805,6.029,13.2964,4.59963,2470.171,2020-2-07T09:31:09Z
2020-02-07T07:33:37Z,42.805,6.029,13.2959,4.59965,2470.124,2020-2-07T09:34:12Z
2020-02-07T07:36:41Z,42.805,6.029,13.2961,4.59963,2470.124,2020-2-07T09:37:15Z
2020-02-07T07:39:44Z,42.805,6.029,13.2964,4.59964,2470.147,2020-2-07T09:40:18Z
2020-02-07T07:42:47Z,42.805,6.029,13.2964,4.59962,2470.171,2020-2-07T09:43:21Z
2020-02-07T07:45:50Z,42.805,6.029,13.2959,4.59964,2470.11,2020-2-07T09:46:24Z
2020-02-07T07:48:53Z,42.805,6.029,13.2961,4.59966,2470.1,2020-2-07T09:49:28Z
2020-02-07T07:51:57Z,42.805,6.029,13.2961,4.59962,2470.147,2020-2-07T09:52:31Z
2020-02-07T07:55:00Z,42.805,6.029,13.2967,4.59963,2470.133,2020-2-07T09:55:34Z
2020-02-07T07:58:03Z,42.805,6.029,13.2961,4.59964,2470.087,2020-2-07T09:58:37Z
2020-02-07T08:01:06Z,42.805,6.029,13.2964,4.59964,2470.147,2020-2-07T10:01:41Z
2020-02-07T08:04:09Z,42.805,6.029,13.2959,4.59962,2470.1,2020-2-07T10:04:44Z
2020-02-07T08:07:13Z,42.805,6.029,13.2960,4.59962,2470.1,2020-2-07T10:07:47Z
2020-02-07T08:10:16Z,42.805,6.029,13.2967,4.59963,2470.124,2020-2-07T10:10:50Z
2020-02-07T08:13:19Z,42.805,6.029,13.2958,4.59961,2470.11,2020-2-07T10:13:53Z
2020-02-07T08:16:22Z,42.805,6.029,13.2959,4.59963,2470.124,2020-2-07T10:16:57Z
2020-02-07T08:19:25Z,42.805,6.029,13.2958,4.59964,2470.087,2020-2-07T10:20:00Z
2020-02-07T08:22:29Z,42.805,6.029,13.2962,4.59966,2470.133,2020-2-07T10:23:03Z
2020-02-07T08:25:32Z,42.805,6.029,13.2959,4.59963,2470.11,2020-2-07T10:26:06Z
2020-02-07T08:28:35Z,42.805,6.029,13.2964,4.59961,2470.1,2020-2-07T10:29:10Z
2020-02-07T08:31:39Z,42.805,6.029,13.2961,4.59962,2470.11,2020-2-07T10:32:13Z
2020-02-07T08:34:42Z,42.805,6.029,13.2961,4.59964,2470.11,2020-2-07T10:35:16Z
2020-02-07T08:37:45Z,42.805,6.029,13.2962,4.59961,2470.133,2020-2-07T10:38:19Z
2020-02-07T08:40:48Z,42.805,6.029,13.2961,4.59963,2470.11,2020-2-07T10:41:22Z
2020-02-07T08:43:51Z,42.805,6.029,13.2963,4.59961,2470.087,2020-2-07T10:44:26Z
2020-02-07T08:46:54Z,42.805,6.029,13.2960,4.59963,2470.11,2020-2-07T10:47:29Z
2020-02-07T08:49:58Z,42.805,6.029,13.2964,4.59964,2470.087,2020-2-07T10:50:32Z
2020-02-07T08:53:01Z,42.805,6.029,13.2963,4.59962,2470.063,2020-2-07T10:53:35Z
2020-02-07T08:56:04Z,42.805,6.029,13.2960,4.59965,2470.1,2020-2-07T10:56:38Z
2020-02-07T08:59:07Z,42.805,6.029,13.2964,4.59964,2470.1,2020-2-07T10:59:42Z
2020-02-07T09:02:11Z,42.805,6.029,13.2960,4.59963,2470.063,2020-2-07T11:02:45Z
2020-02-07T09:05:14Z,42.805,6.029,13.2961,4.59966,2470.1,2020-2-07T11:05:48Z
2020-02-07T09:08:17Z,42.805,6.029,13.2961,4.59962,2470.017,2020-2-07T11:08:51Z
2020-02-07T09:11:20Z,42.805,6.029,13.2962,4.59963,2470.053,2020-2-07T11:11:54Z
2020-02-07T09:14:23Z,42.805,6.029,13.2961,4.59964,2470.087,2020-2-07T11:14:58Z
2020-02-07T09:17:27Z,42.805,6.029,13.2963,4.59963,2470.073,2020-2-07T11:18:01Z
2020-02-07T09:20:30Z,42.805,6.029,13.2963,4.59966,2470.087,2020-2-07T11:21:04Z
2020-02-07T09:23:33Z,42.805,6.029,13.2963,4.59964,2470.04,2020-2-07T11:24:07Z
2020-02-07T09:26:36Z,42.805,6.029,13.2962,4.59962,2470.077,2020-2-07T11:27:10Z
2020-02-07T09:29:40Z,42.805,6.029,13.2959,4.59964,2470.053,2020-2-07T11:30:14Z
2020-02-07T09:32:43Z,42.805,6.029,13.2959,4.59963,2470.077,2020-2-07T11:33:17Z
2020-02-07T09:35:46Z,42.805,6.029,13.2961,4.59963,2470.077,2020-2-07T11:36:20Z
2020-02-07T09:38:49Z,42.805,6.029,13.2962,4.59964,2470.063,2020-2-07T11:39:24Z
2020-02-07T09:41:53Z,42.805,6.029,13.2959,4.59963,2470.053,2020-2-07T11:42:27Z
2020-02-07T09:44:56Z,42.805,6.029,13.2961,4.59964,2470.11,2020-2-07T11:45:30Z
2020-02-07T09:47:59Z,42.805,6.029,13.2965,4.59965,2470.03,2020-2-07T11:48:33Z
2020-02-07T09:51:02Z,42.805,6.029,13.2963,4.59962,2470.053,2020-2-07T11:51:37Z
2020-02-07T09:54:06Z,42.805,6.029,13.2960,4.59961,2470.077,2020-2-07T11:54:40Z
2020-02-07T09:57:09Z,42.805,6.029,13.2964,4.59962,2470.077,2020-2-07T11:57:43Z
2020-02-07T10:00:12Z,42.805,6.029,13.2961,4.59961,2470.04,2020-2-07T12:00:46Z
2020-02-07T10:03:15Z,42.805,6.029,13.2968,4.59961,2470.063,2020-2-07T12:03:49Z
2020-02-07T10:06:18Z,42.805,6.029,13.2962,4.59961,2470.03,2020-2-07T12:06:53Z
2020-02-07T10:09:22Z,42.805,6.029,13.2961,4.59964,2470.053,2020-2-07T12:09:56Z
2020-02-07T10:12:25Z,42.805,6.029,13.2963,4.59964,2470.04,2020-2-07T12:12:59Z
2020-02-07T10:15:28Z,42.805,6.029,13.2957,4.59961,2470.04,2020-2-07T12:16:02Z
2020-02-07T10:18:31Z,42.805,6.029,13.2962,4.59961,2470.04,2020-2-07T12:19:05Z
2020-02-07T10:21:34Z,42.805,6.029,13.2961,4.59961,2470.053,2020-2-07T12:22:09Z
2020-02-07T10:24:38Z,42.805,6.029,13.2964,4.59964,2470.04,2020-2-07T12:25:12Z
2020-02-07T10:27:41Z,42.805,6.029,13.2960,4.59962,2470.017,2020-2-07T12:28:15Z
2020-02-07T10:30:44Z,42.805,6.029,13.2962,4.59961,2470.053,2020-2-07T12:31:18Z
2020-02-07T10:33:47Z,42.805,6.029,13.2961,4.59963,2470.017,2020-2-07T12:34:22Z
2020-02-07T10:36:50Z,42.805,6.029,13.2965,4.59961,2470.017,2020-2-07T12:37:25Z
2020-02-07T10:39:54Z,42.805,6.029,13.2959,4.59963,2469.993,2020-2-07T12:40:28Z
2020-02-07T10:42:57Z,42.805,6.029,13.2962,4.59962,2470.017,2020-2-07T12:43:31Z
2020-02-07T10:46:00Z,42.805,6.029,13.2961,4.59963,2470.017,2020-2-07T12:46:34Z
2020-02-07T10:49:03Z,42.805,6.029,13.2963,4.59962,2470.03,2020-2-07T12:49:38Z
2020-02-07T10:52:07Z,42.805,6.029,13.2961,4.59961,2470.017,2020-2-07T12:52:41Z
2020-02-07T10:55:10Z,42.805,6.029,13.2964,4.59963,2469.993,2020-2-07T12:55:44Z
2020-02-07T10:58:13Z,42.805,6.029,13.2961,4.59961,2470.03,2020-2-07T12:58:47Z
2020-02-07T11:01:16Z,42.805,6.029,13.2964,4.59961,2470.03,2020-2-07T13:01:50Z
2020-02-07T11:04:19Z,42.805,6.029,13.2961,4.59961,2470.03,2020-2-07T13:04:54Z
2020-02-07T11:07:23Z,42.805,6.029,13.2955,4.59961,2470.03,2020-2-07T13:07:57Z
2020-02-07T11:10:26Z,42.805,6.029,13.2960,4.59961,2470.017,2020-2-07T13:11:00Z
2020-02-07T11:13:29Z,42.805,6.029,13.2959,4.59961,2470.007,2020-2-07T13:14:03Z
2020-02-07T11:16:32Z,42.805,6.029,13.2960,4.59961,2470.03,2020-2-07T13:17:07Z
2020-02-07T11:19:36Z,42.805,6.029,13.2957,4.59963,2470.03,2020-2-07T13:20:10Z
2020-02-07T11:22:39Z,42.805,6.029,13.2963,4.59962,2469.984,2020-2-07T13:23:13Z
2020-02-07T11:25:42Z,42.805,6.029,13.2963,4.59961,2469.984,2020-2-07T13:26:16Z
2020-02-07T11:28:45Z,42.805,6.029,13.2962,4.59963,2470.007,2020-2-07T13:29:20Z
2020-02-07T11:31:48Z,42.805,6.029,13.2964,4.59963,2469.947,2020-2-07T13:32:23Z
2020-02-07T11:34:52Z,42.805,6.029,13.2960,4.59961,2470.017,2020-2-07T13:35:26Z
2020-02-07T11:37:55Z,42.805,6.029,13.2961,4.59961,2469.993,2020-2-07T13:38:29Z
2020-02-07T11:40:58Z,42.805,6.029,13.2961,4.59961,2469.97,2020-2-07T13:41:32Z
2020-02-07T11:44:01Z,42.805,6.029,13.2959,4.59962,2470.017,2020-2-07T13:44:36Z
2020-02-07T11:47:05Z,42.805,6.029,13.2960,4.59962,2469.97,2020-2-07T13:47:39Z
2020-02-07T11:50:08Z,42.805,6.029,13.2961,4.59961,2469.97,2020-2-07T13:50:42Z
2020-02-07T11:53:11Z,42.805,6.029,13.2961,4.59961,2469.993,2020-2-07T13:53:45Z
2020-02-07T11:56:14Z,42.805,6.029,13.2958,4.59961,2469.984,2020-2-07T13:56:48Z
2020-02-07T11:59:17Z,42.805,6.029,13.2963,4.59962,2469.947,2020-2-07T13:59:52Z
2020-02-07T12:02:21Z,42.805,6.029,13.2958,4.59961,2469.97,2020-2-07T14:02:55Z
2020-02-07T12:05:24Z,42.805,6.029,13.2957,4.59964,2469.96,2020-2-07T14:05:58Z
2020-02-07T12:08:27Z,42.805,6.029,13.2960,4.59961,2469.96,2020-2-07T14:09:01Z
2020-02-07T12:11:30Z,42.805,6.029,13.2963,4.59960,2469.947,2020-2-07T14:12:05Z
2020-02-07T12:14:33Z,42.805,6.029,13.2962,4.59961,2469.947,2020-2-07T14:15:08Z
2020-02-07T12:17:37Z,42.805,6.029,13.2960,4.59962,2469.97,2020-2-07T14:18:11Z
2020-02-07T12:20:40Z,42.805,6.029,13.2963,4.59961,2469.97,2020-2-07T14:21:14Z
2020-02-07T12:23:43Z,42.805,6.029,13.2958,4.59962,2469.97,2020-2-07T14:24:17Z
2020-02-07T12:26:46Z,42.805,6.029,13.2962,4.59962,2469.96,2020-2-07T14:27:20Z
2020-02-07T12:29:49Z,42.805,6.029,13.2964,4.59961,2469.956,2020-2-07T14:30:24Z
2020-02-07T12:32:53Z,42.805,6.029,13.2962,4.59962,2469.97,2020-2-07T14:33:27Z
2020-02-07T12:35:56Z,42.805,6.029,13.2961,4.59961,2469.993,2020-2-07T14:36:30Z
2020-02-07T12:38:59Z,42.805,6.029,13.2959,4.59961,2469.96,2020-2-07T14:39:33Z
2020-02-07T12:42:02Z,42.805,6.029,13.2963,4.59961,2469.96,2020-2-07T14:42:37Z
2020-02-07T12:45:06Z,42.805,6.029,13.2964,4.59961,2469.993,2020-2-07T14:45:40Z
2020-02-07T12:48:09Z,42.805,6.029,13.2961,4.59964,2469.97,2020-2-07T14:48:43Z
2020-02-07T12:51:12Z,42.805,6.029,13.2959,4.59962,2469.97,2020-2-07T14:51:47Z
2020-02-07T12:54:16Z,42.805,6.029,13.2961,4.59961,2469.96,2020-2-07T14:54:50Z
2020-02-07T12:57:19Z,42.805,6.029,13.2961,4.59961,2469.96,2020-2-07T14:57:53Z
2020-02-07T13:00:22Z,42.805,6.029,13.2963,4.59960,2469.947,2020-2-07T15:00:56Z
2020-02-07T13:03:25Z,42.805,6.029,13.2961,4.59961,2469.97,2020-2-07T15:04:00Z
2020-02-07T13:06:29Z,42.805,6.029,13.2960,4.59961,2469.937,2020-2-07T15:07:03Z
2020-02-07T13:09:32Z,42.805,6.029,13.2961,4.59961,2469.937,2020-2-07T15:10:06Z
2020-02-07T13:12:35Z,42.805,6.029,13.2958,4.59961,2469.97,2020-2-07T15:13:09Z
2020-02-07T13:15:38Z,42.805,6.029,13.2961,4.59960,2469.97,2020-2-07T15:16:12Z
2020-02-07T13:18:41Z,42.805,6.029,13.2961,4.59960,2469.97,2020-2-07T15:19:16Z
2020-02-07T13:21:45Z,42.805,6.029,13.2962,4.59961,2469.984,2020-2-07T15:22:19Z
2020-02-07T13:24:48Z,42.805,6.029,13.2961,4.59960,2469.96,2020-2-07T15:25:22Z
2020-02-07T13:27:51Z,42.805,6.029,13.2961,4.59962,2469.937,2020-2-07T15:28:25Z
2020-02-07T13:30:54Z,42.805,6.029,13.2961,4.59960,2469.96,2020-2-07T15:31:29Z
2020-02-07T13:33:58Z,42.805,6.029,13.2960,4.59960,2469.947,2020-2-07T15:34:32Z
2020-02-07T13:37:01Z,42.805,6.029,13.2962,4.59961,2469.923,2020-2-07T15:37:35Z
2020-02-07T13:40:04Z,42.805,6.029,13.2963,4.59961,2469.947,2020-2-07T15:40:38Z
2020-02-07T13:43:07Z,42.805,6.029,13.2961,4.59961,2469.984,2020-2-07T15:43:41Z
2020-02-07T13:46:10Z,42.805,6.029,13.2961,4.59961,2469.984,2020-2-07T15:46:45Z
2020-02-07T13:49:14Z,42.805,6.029,13.2958,4.59960,2469.97,2020-2-07T15:49:48Z
2020-02-07T13:52:17Z,42.805,6.029,13.2963,4.59961,2469.993,2020-2-07T15:52:51Z
2020-02-07T13:55:20Z,42.805,6.029,13.2958,4.59960,2469.923,2020-2-07T15:55:54Z
2020-02-07T13:58:23Z,42.805,6.029,13.2962,4.59960,2469.97,2020-2-07T15:58:57Z
2020-02-07T14:01:26Z,42.805,6.029,13.2961,4.59961,2469.97,2020-2-07T16:02:01Z
2020-02-07T14:04:30Z,42.805,6.029,13.2959,4.59961,2469.993,2020-2-07T16:05:04Z
2020-02-07T14:07:33Z,42.805,6.029,13.2957,4.59960,2470.007,2020-2-07T16:08:07Z
2020-02-07T14:10:36Z,42.805,6.029,13.2959,4.59961,2470.007,2020-2-07T16:11:10Z
2020-02-07T14:13:39Z,42.805,6.029,13.2960,4.59961,2469.947,2020-2-07T16:14:14Z
2020-02-07T14:16:43Z,42.805,6.029,13.2959,4.59961,2469.947,2020-2-07T16:17:17Z
2020-02-07T14:19:46Z,42.805,6.029,13.2964,4.59961,2470.007,2020-2-07T16:20:20Z
2020-02-07T14:22:49Z,42.805,6.029,13.2962,4.59961,2469.97,2020-2-07T16:23:23Z
2020-02-07T14:25:52Z,42.805,6.029,13.2964,4.59961,2469.97,2020-2-07T16:26:27Z
2020-02-07T14:28:56Z,42.805,6.029,13.2963,4.59963,2470.007,2020-2-07T16:29:30Z
2020-02-07T14:31:59Z,42.805,6.029,13.2958,4.59959,2469.993,2020-2-07T16:32:33Z
2020-02-07T14:35:02Z,42.805,6.029,13.2960,4.59960,2469.993,2020-2-07T16:35:36Z
2020-02-07T14:38:05Z,42.805,6.029,13.2962,4.59961,2470.007,2020-2-07T16:38:40Z
2020-02-07T14:41:08Z,42.805,6.029,13.2956,4.59960,2469.947,2020-2-07T16:41:43Z
2020-02-07T14:44:12Z,42.805,6.029,13.2961,4.59962,2469.97,2020-2-07T16:44:46Z
2020-02-07T14:47:15Z,42.805,6.029,13.2958,4.59960,2469.956,2020-2-07T16:47:49Z
2020-02-07T14:50:18Z,42.805,6.029,13.2963,4.59961,2469.97,2020-2-07T16:50:52Z
2020-02-07T14:53:21Z,42.805,6.029,13.2957,4.59961,2470.017,2020-2-07T16:53:56Z
2020-02-07T14:56:25Z,42.805,6.029,13.2963,4.59960,2469.993,2020-2-07T16:56:59Z
2020-02-07T14:59:28Z,42.805,6.029,13.2962,4.59961,2470.007,2020-2-07T17:00:02Z
2020-02-07T15:02:31Z,42.805,6.029,13.2961,4.59961,2469.993,2020-2-07T17:03:05Z
2020-02-07T15:05:34Z,42.805,6.029,13.2961,4.59961,2469.993,2020-2-07T17:06:09Z
2020-02-07T15:08:38Z,42.805,6.029,13.2961,4.59960,2470.053,2020-2-07T17:09:12Z
2020-02-07T15:11:41Z,42.805,6.029,13.2960,4.59961,2470.007,2020-2-07T17:12:15Z
2020-02-07T15:14:44Z,42.805,6.029,13.2957,4.59960,2469.97,2020-2-07T17:15:18Z